Fort Wayne, IN

7:43 PM EST on November 18, 2019 (GMT -0500)
Fort Wayne International

Weather History for KFWA - September, 2019

Change the Weather History Date:

Monday, September 2, 2019

  Actual Average Record
Temperature  
Mean Temperature 71 °F 69 °F  
Max Temperature 81 °F 81 °F 100 °F (1953)
Min Temperature 60 °F 58 °F 39 °F (1909)
Degree Days  
Heating Degree Days 0 1  
Month to date heating degree days 0 2  
Since 1 July heating degree days 1 14  
Cooling Degree Days 6 5  
Month to date cooling degree days 6 10  
Year to date cooling degree days 844 727  
Growing Degree Days 21 (Base 50)    
Moisture  
Dew Point 63 °F    
Average Humidity 77    
Maximum Humidity 100    
Minimum Humidity 54    
Precipitation  
Precipitation 0.00 in 0.11 in 0.85 in (1984)
Month to date precipitation 0.06 0.21  
Year to date precipitation 28.33 27.05  
Sea Level Pressure  
Sea Level Pressure 30.09 in    
Wind  
Wind Speed 4 mph (WNW)    
Max Wind Speed 13 mph    
Max Gust Speed 15 mph    
Visibility 9 miles    
Events Fog    
T = Trace of Precipitation, MM = Missing Value Source: NWS Daily Summary

Daily Weather History Graph

Daily Weather History Graph

Search for Another Location

Airport or City:

Astronomy

Sep. 02, 2019 Rise Set
Actual Time 7:08 AM EDT 8:11 PM EDT
Civil Twilight 6:40 AM EDT 8:40 PM EDT
Nautical Twilight 6:06 AM EDT 9:13 PM EDT
Astronomical Twilight 5:31 AM EDT 9:48 PM EDT
Moon 10:51 AM EDT (9/2) 10:31 PM EDT (9/2)
Length of Visible Light 14h 00m
Length of Day
13h 03m
Waxing Crescent, 15% of the Moon is Illuminated
Sep 2
Waxing Crescent
Sep 5
First Quarter
Sep 14
Full
Sep 21
Last Quarter
Sep 28
New

Hourly Weather History & Observations

Time (EDT) Temp. Heat Index Dew Point Humidity Pressure Visibility Wind Dir Wind Speed Gust Speed Precip Events Conditions
12:54 AM 61.0 °F - 60.1 °F 97% 30.07 in 2.5 mi West 4.6 mph - N/A   Scattered Clouds
1:20 AM 61.0 °F - 60.1 °F 97% 30.08 in 4.0 mi Calm Calm - N/A   Mostly Cloudy
1:54 AM 63.0 °F - 62.1 °F 97% 30.07 in 8.0 mi Calm Calm - N/A Fog Patches of Fog
2:28 AM 63.0 °F - 62.1 °F 97% 30.08 in 9.0 mi Calm Calm - N/A Fog Patches of Fog
2:54 AM 64.0 °F - 63.0 °F 96% 30.07 in 10.0 mi Calm Calm - N/A Fog Patches of Fog
3:54 AM 64.9 °F - 64.0 °F 97% 30.06 in 8.0 mi West 3.5 mph - N/A   Overcast
4:54 AM 64.9 °F - 64.0 °F 97% 30.07 in 8.0 mi NW 3.5 mph - N/A   Overcast
5:54 AM 64.9 °F - 64.0 °F 97% 30.08 in 10.0 mi West 5.8 mph - N/A   Overcast
6:54 AM 64.9 °F - 63.0 °F 93% 30.08 in 8.0 mi West 3.5 mph - N/A   Overcast
7:54 AM 64.9 °F - 62.1 °F 90% 30.10 in 8.0 mi WNW 4.6 mph - N/A   Scattered Clouds
8:54 AM 66.0 °F - 63.0 °F 90% 30.12 in 9.0 mi WNW 6.9 mph - N/A   Mostly Cloudy
9:54 AM 69.1 °F - 63.0 °F 81% 30.11 in 10.0 mi NW 6.9 mph - N/A   Partly Cloudy
10:54 AM 72.0 °F - 62.1 °F 71% 30.12 in 10.0 mi NW 6.9 mph - N/A   Partly Cloudy
11:54 AM 73.9 °F - 62.1 °F 66% 30.12 in 10.0 mi Variable 6.9 mph - N/A   Partly Cloudy
12:54 PM 75.0 °F - 62.1 °F 64% 30.12 in 10.0 mi NNE 4.6 mph - N/A   Scattered Clouds
1:54 PM 75.9 °F - 61.0 °F 60% 30.11 in 10.0 mi Calm Calm - N/A   Scattered Clouds
2:54 PM 79.0 °F - 63.0 °F 58% 30.10 in 10.0 mi WNW 8.1 mph - N/A   Mostly Cloudy
3:54 PM 77.0 °F - 63.0 °F 62% 30.09 in 10.0 mi North 4.6 mph - N/A   Scattered Clouds
4:54 PM 80.1 °F 81.5 °F 63.0 °F 56% 30.08 in 10.0 mi West 6.9 mph - N/A   Scattered Clouds
5:54 PM 80.1 °F 81.5 °F 63.0 °F 56% 30.08 in 10.0 mi West 4.6 mph - N/A   Partly Cloudy
6:54 PM 78.1 °F - 64.0 °F 62% 30.07 in 10.0 mi West 6.9 mph - N/A   Partly Cloudy
7:54 PM 73.0 °F - 64.0 °F 73% 30.07 in 10.0 mi WSW 4.6 mph - N/A   Partly Cloudy
8:54 PM 70.0 °F - 64.0 °F 81% 30.07 in 10.0 mi Calm Calm - N/A   Partly Cloudy
9:54 PM 66.9 °F - 64.0 °F 90% 30.08 in 10.0 mi Calm Calm - N/A   Clear
10:54 PM 64.0 °F - 62.1 °F 93% 30.08 in 10.0 mi Calm Calm - N/A   Clear
11:54 PM 64.0 °F - 62.1 °F 93% 30.08 in 10.0 mi Calm Calm - N/A   Clear